Tracking 21612 objects as of 19-Oct-2020
HD Live streaming from Space Station
objects crossing your sky now

COSMOS 1275 DEB

Track COSMOS 1275 DEB now!
10-day predictions


NORAD ID: 39947
Int'l Code: 1981-053NP
Perigee: 935.5 km
Apogee: 1,119.0 km
Inclination: 83.0 °
Period: 105.5 minutes
Semi major axis: 7398 km
RCS: 0.0065 m2 (small)
Launch date: April 25, 1981
Source: Commonwealth of Independent States (former USSR) (CIS)
Launch site: PLESETSK MISSILE AND SPACE COMPLEX (PKMTR)

Note: This is SATELLITE DEBRIS
aabbcc
Your satellite tracking list
Your tracking list is empty




NASA's NSSDC Master Catalog

Two Line Element Set (TLE):
1 39947U 81053NH  20290.56605590 +.00000022 +00000-0 +83085-5 0  9991
2 39947 083.0183 026.8046 0123964 174.4405 246.0262 13.64295970316865
Source of the keplerian elements: AFSPC